{"data":{"norad_id":67431,"epoch":"2026-09-19T14:08:21.564672Z","epoch_age_seconds":154096,"freshness":"FRESH","line1":"1 67431U 26005AD  26262.58913848  .00007992  00000+0  29928-3 0  9997","line2":"2 67431  43.0009 222.6931 0000786 353.6054   6.4788 15.27616762 38356","mean_motion":15.27616762,"eccentricity":7.86e-5,"inclination_deg":43.0009,"raan_deg":222.6931,"arg_perigee_deg":353.6054,"mean_anomaly_deg":6.4788,"bstar":0.00029928,"rev_number":3835,"period_min":94.264480190353,"perigee_km":482.39973901899,"apogee_km":483.47830016927,"semimajor_km":6861.0760195941,"source":"CELESTRAK","updated_at":"2026-09-20T09:00:43.525687Z"}}